FW3819 Weather Reports


Display with metric or nautical units.
time (UTC)temp
F
wind
direction
speed
MPH
gust
MPH
rain 1hr
in
rain 24hr
in
rain mn
in
humidity
%
barometer
mb
20260505111704 60 100 1.0 4.0 0.00 0.00 0.00 61 1013.4
20260505111452 60 100 1.0 3.0 0.00 0.00 0.00 61 1013.3
20260505110701 60 113 1.0 4.0 0.00 0.00 0.00 61 1013.2
20260505110200 60 100 1.0 4.0 0.00 0.00 0.00 61 1013.2
20260505102136 58 117 1.0 3.0 0.00 0.00 0.00 67 1012.8
20260505101636 58 108 1.0 3.0 0.00 0.00 0.00 67 1012.8
20260505101137 58 143 1.0 3.0 0.00 0.00 0.00 67 1012.8
20260505100633 58 73 1.0 3.0 0.00 0.00 0.00 68 1012.8
20260505100134 58 100 1.0 3.0 0.00 0.00 0.00 68 1012.7
20260505095633 58 73 1.0 3.0 0.00 0.00 0.00 67 1012.8
20260505095434 58 82 1.0 4.0 0.00 0.00 0.00 68 1012.7
20260505094633 58 107 1.0 4.0 0.00 0.00 0.00 68 1012.7
20260505094137 57 82 1.0 4.0 0.00 0.00 0.00 69 1012.6
20260505093637 57 100 1.0 3.0 0.00 0.00 0.00 70 1012.6
20260505093134 57 54 1.0 3.0 0.00 0.00 0.00 70 1012.5
20260505092632 57 110 1.0 3.0 0.00 0.00 0.00 71 1012.6
20260505092131 56 89 1.0 3.0 0.00 0.00 0.00 73 1012.5
20260505091630 56 69 1.0 3.0 0.00 0.00 0.00 72 1012.5
20260505091131 56 100 1.0 3.0 0.00 0.00 0.00 75 1012.4
20260505090632 56 11 1.0 3.0 0.00 0.00 0.00 75 1012.4
20260505090130 56 70 1.0 4.0 0.00 0.00 0.00 76 1012.4
20260505085629 55 54 1.0 4.0 0.00 0.00 0.00 77 1012.3
20260505085430 55 11 1.0 3.0 0.00 0.00 0.00 79 1012.4
20260505084629 55 82 1.0 3.0 0.00 0.00 0.00 79 1012.5
20260505084427 55 28 0.0 3.0 0.00 0.00 0.00 79 1012.5
20260505083630 55 54 0.0 1.0 0.00 0.00 0.00 79 1012.5
20260505083129 55 11 0.0 1.0 0.00 0.00 0.00 80 1012.5
20260505082630 54 54 0.0 1.0 0.00 0.00 0.00 80 1012.5
20260505082428 55 296 0.0 1.0 0.00 0.00 0.00 80 1012.5
20260505081630 55 54 1.0 1.0 0.00 0.00 0.00 80 1012.5
20260505081129 54 54 0.0 1.0 0.00 0.00 0.00 80 1012.3
20260505080629 54 11 0.0 1.0 0.00 0.00 0.00 80 1012.4
20260505080130 54 100 0.0 1.0 0.00 0.00 0.00 80 1012.4
20260505075629 54 279 0.0 1.0 0.00 0.00 0.00 80 1012.4
20260505075130 55 54 0.0 1.0 0.00 0.00 0.00 80 1012.4
20260505074631 55 54 0.0 1.0 0.00 0.00 0.00 80 1012.2
20260505074131 55 11 0.0 1.0 0.00 0.00 0.00 81 1012.4
20260505073623 55 54 0.0 3.0 0.00 0.00 0.00 80 1012.4
20260505073118 55 54 0.0 3.0 0.00 0.00 0.00 80 1012.3
20260505072616 55 82 0.0 1.0 0.00 0.00 0.00 80 1012.2
20260505072109 55 100 1.0 1.0 0.00 0.00 0.00 81 1012.2
20260505071603 54 82 1.0 1.0 0.00 0.00 0.00 81 1012.2
20260505071356 55 100 0.0 1.0 0.00 0.00 0.00 80 1012.2
20260505070603 55 54 0.0 1.0 0.00 0.00 0.00 80 1012.3
20260505070104 55 54 0.0 3.0 0.00 0.00 0.00 80 1012.2
20260505065604 55 82 1.0 3.0 0.00 0.00 0.00 80 1012.2
20260505065352 55 73 1.0 3.0 0.00 0.00 0.00 80 1012.2
20260505064601 55 82 1.0 3.0 0.00 0.00 0.00 79 1012.1
20260505064358 55 73 1.0 3.0 0.00 0.00 0.00 79 1012.1
20260505063601 55 37 1.0 3.0 0.00 0.00 0.00 78 1012.1
20260505063104 55 11 1.0 3.0 0.00 0.00 0.00 78 1012.2
20260505062601 55 54 1.0 3.0 0.00 0.00 0.00 77 1012.2
20260505062103 55 73 0.0 3.0 0.00 0.00 0.00 77 1012.1
20260505061602 56 11 1.0 3.0 0.00 0.00 0.00 77 1012.2
20260505061104 56 261 1.0 3.0 0.00 0.00 0.00 76 1012.2
20260505060601 56 326 0.0 3.0 0.00 0.00 0.00 76 1012.1
20260505055858 56 11 0.0 1.0 0.00 0.00 0.00 75 1012.1
20260505055357 56 54 0.0 1.0 0.00 0.00 0.00 74 1012.1
20260505054602 57 54 0.0 1.0 0.00 0.00 0.00 74 1012.2
20260505054101 57 54 0.0 1.0 0.00 0.00 0.00 73 1012.2
20260505053603 57 11 0.0 1.0 0.00 0.00 0.00 73 1012.1
20260505053102 57 54 0.0 1.0 0.00 0.00 0.00 73 1012.2
20260505052851 57 11 0.0 1.0 0.00 0.00 0.00 72 1012.2
20260505052104 57 82 0.0 1.0 0.00 0.00 0.00 72 1012.2
20260505051602 57 100 0.0 1.0 0.00 0.00 0.00 72 1012.2
20260505051351 58 54 0.0 3.0 0.00 0.00 0.00 71 1012.3
20260505050652 58 82 1.0 1.0 0.00 0.00 0.00 71 1012.2
20260505050637 58 54 1.0 3.0 0.00 0.00 0.00 71 1012.2
20260505041600 60 54 0.0 3.0 0.00 0.00 0.00 65 1012.3
20260505041101 60 54 1.0 3.0 0.00 0.00 0.00 66 1012.2
20260505040602 60 67 1.0 3.0 0.00 0.00 0.00 65 1012.2
20260505035603 60 11 1.0 3.0 0.00 0.00 0.00 64 1012.2
20260505035101 60 21 1.0 3.0 0.00 0.00 0.00 64 1012.0
20260505034603 60 54 1.0 3.0 0.00 0.00 0.00 63 1012.0
20260505034353 61 73 0.0 3.0 0.00 0.00 0.00 64 1012.0
20260505033602 61 73 0.0 5.0 0.00 0.00 0.00 62 1012.0
20260505033101 61 73 1.0 5.0 0.00 0.00 0.00 63 1012.0
20260505032602 62 11 1.0 1.0 0.00 0.00 0.00 62 1012.0
20260505032101 62 326 1.0 3.0 0.00 0.00 0.00 62 1012.0
20260505031602 63 100 1.0 3.0 0.00 0.00 0.00 60 1012.0
20260505031102 63 70 1.0 3.0 0.00 0.00 0.00 58 1012.0
20260505030602 64 0 1.0 3.0 0.00 0.00 0.00 58 1012.0
20260505030352 64 28 0.0 1.0 0.00 0.00 0.00 56 1012.0
20260505025601 65 54 0.0 1.0 0.00 0.00 0.00 54 1011.9
20260505025102 65 326 0.0 1.0 0.00 0.00 0.00 53 1011.9
20260505024603 65 54 1.0 4.0 0.00 0.00 0.00 53 1012.0
20260505024353 65 234 1.0 4.0 0.00 0.00 0.00 52 1012.1
20260505023953 66 117 1.0 5.0 0.00 0.00 0.00 52 1012.1
20260505023947 66 100 1.0 5.0 0.00 0.00 0.00 52 1012.0
20260505022605 65 234 1.0 3.0 0.00 0.00 0.00 53 1012.1
20260505022154 65 100 1.0 4.0 0.00 0.00 0.00 54 1012.0
20260505022139 65 143 1.0 4.0 0.00 0.00 0.00 54 1012.1
20260505021102 65 158 1.0 3.0 0.00 0.00 0.00 56 1012.0
20260505020602 65 100 1.0 3.0 0.00 0.00 0.00 57 1012.1
20260505020354 65 143 1.0 3.0 0.00 0.00 0.00 54 1011.9
20260505015601 65 54 1.0 3.0 0.00 0.00 0.00 54 1011.8
20260505015101 65 11 1.0 3.0 0.00 0.00 0.00 54 1011.9
20260505014601 66 54 1.0 3.0 0.00 0.00 0.00 52 1011.8
20260505014101 66 11 1.0 3.0 0.00 0.00 0.00 53 1011.8
20260505013601 67 54 1.0 3.0 0.00 0.00 0.00 51 1011.7
20260505013101 67 188 1.0 3.0 0.00 0.00 0.00 49 1011.7
20260505012602 68 326 1.0 3.0 0.00 0.00 0.00 48 1011.6
20260505012103 67 54 1.0 3.0 0.00 0.00 0.00 50 1011.6
20260505011601 68 100 1.0 3.0 0.00 0.00 0.00 50 1011.7
20260505011101 69 296 1.0 3.0 0.00 0.00 0.00 45 1011.5
20260505010847 70 100 1.0 4.0 0.00 0.00 0.00 44 1011.4
20260505010840 70 129 1.0 4.0 0.00 0.00 0.00 43 1011.4
20260505010756 69 89 0.0 3.0 0.00 0.00 0.00 45 1011.4
20260505010214 69 11 0.0 3.0 0.00 0.00 0.00 44 1011.4
20260505004602 71 143 1.0 5.0 0.00 0.00 0.00 42 1011.4
20260505004101 71 234 1.0 5.0 0.00 0.00 0.00 41 1011.3
20260505003555 72 160 1.0 4.0 0.00 0.00 0.00 40 1011.3
20260505003345 72 174 1.0 4.0 0.00 0.00 0.00 40 1011.3
20260505002543 72 125 1.0 4.0 0.00 0.00 0.00 39 1011.2
20260505002039 73 143 1.0 5.0 0.00 0.00 0.00 39 1011.2
20260505001530 73 153 1.0 5.0 0.00 0.00 0.00 38 1011.3
20260505001030 73 143 1.0 7.0 0.00 0.00 0.00 38 1011.2
20260505000532 73 175 2.0 7.0 0.00 0.00 0.00 37 1011.2
20260505000330 73 208 2.0 11.0 0.00 0.00 0.00 37 1011.2
20260504235532 74 338 2.0 11.0 0.00 0.00 0.00 37 1011.1
20260504235323 74 188 2.0 9.0 0.00 0.00 0.00 37 1011.1
20260504234531 74 234 2.0 8.0 0.00 0.00 0.00 36 1011.1
20260504234031 74 171 2.0 8.0 0.00 0.00 0.00 36 1011.1
20260504233530 74 171 2.0 8.0 0.00 0.00 0.00 36 1011.0
20260504233329 74 107 2.0 8.0 0.00 0.00 0.00 36 1011.0
20260504232531 74 129 2.0 11.0 0.00 0.00 0.00 35 1011.0
20260504232032 74 136 2.0 11.0 0.00 0.00 0.00 35 1010.9
20260504231530 75 188 2.0 8.0 0.00 0.00 0.00 35 1010.9
20260504231031 75 261 3.0 12.0 0.00 0.00 0.00 35 1010.8
20260504230531 75 143 3.0 12.0 0.00 0.00 0.00 34 1010.9
20260504230032 76 110 4.0 16.0 0.00 0.00 0.00 34 1010.8
20260504225530 76 174 4.0 16.0 0.00 0.00 0.00 33 1010.8
20260504225030 76 243 3.0 11.0 0.00 0.00 0.00 33 1010.8
20260504224825 76 143 3.0 9.0 0.00 0.00 0.00 33 1010.7
20260504224029 76 151 4.0 15.0 0.00 0.00 0.00 33 1010.8
20260504223528 76 194 4.0 15.0 0.00 0.00 0.00 33 1010.8
20260504223031 76 134 5.0 18.0 0.00 0.00 0.00 33 1010.8
20260504222531 76 218 4.0 18.0 0.00 0.00 0.00 32 1010.8
20260504222029 77 150 3.0 14.0 0.00 0.00 0.00 33 1010.8
20260504221530 77 173 3.0 12.0 0.00 0.00 0.00 31 1010.7
20260504221030 77 180 2.0 9.0 0.00 0.00 0.00 32 1010.6
20260504220529 77 11 2.0 8.0 0.00 0.00 0.00 33 1010.6
20260504220030 77 143 3.0 8.0 0.00 0.00 0.00 32 1010.6
20260504215531 78 100 3.0 11.0 0.00 0.00 0.00 32 1010.6
20260504215030 78 162 3.0 11.0 0.00 0.00 0.00 30 1010.8
20260504214830 79 132 3.0 15.0 0.00 0.00 0.00 30 1010.7
20260504214029 79 156 3.0 15.0 0.00 0.00 0.00 29 1010.6
20260504213827 80 176 3.0 14.0 0.00 0.00 0.00 28 1010.8
20260504213031 80 138 4.0 14.0 0.00 0.00 0.00 28 1010.8
20260504212528 80 187 4.0 12.0 0.00 0.00 0.00 28 1010.8
20260504212317 80 160 4.0 16.0 0.00 0.00 0.00 28 1010.8
20260504211515 80 156 3.0 16.0 0.00 0.00 0.00 27 1010.9
20260504211009 79 73 4.0 15.0 0.00 0.00 0.00 29 1010.7
20260504210503 79 227 3.0 15.0 0.00 0.00 0.00 28 1010.9
20260504210043 79 172 2.0 8.0 0.00 0.00 0.00 29 1010.9
20260504205003 80 54 3.0 12.0 0.00 0.00 0.00 28 1010.8
20260504204503 80 194 3.0 12.0 0.00 0.00 0.00 28 1010.8
20260504204002 80 152 3.0 11.0 0.00 0.00 0.00 27 1010.9
20260504203503 80 179 2.0 11.0 0.00 0.00 0.00 28 1011.0
20260504203308 80 175 2.0 8.0 0.00 0.00 0.00 28 1011.0
20260504202502 80 175 2.0 8.0 0.00 0.00 0.00 27 1011.1
20260504202002 79 153 3.0 9.0 0.00 0.00 0.00 28 1011.1
20260504201501 79 143 4.0 12.0 0.00 0.00 0.00 28 1011.1
20260504201002 78 223 5.0 16.0 0.00 0.00 0.00 28 1011.2
20260504200502 79 217 4.0 16.0 0.00 0.00 0.00 28 1011.4
20260504200003 79 152 4.0 9.0 0.00 0.00 0.00 28 1011.2
20260504195754 80 205 2.0 9.0 0.00 0.00 0.00 27 1011.2
20260504195002 80 192 2.0 8.0 0.00 0.00 0.00 27 1011.2
20260504194501 80 105 3.0 16.0 0.00 0.00 0.00 28 1011.3
20260504194313 79 166 4.0 16.0 0.00 0.00 0.00 28 1011.4
20260504193457 79 149 5.0 14.0 0.00 0.00 0.00 27 1011.5
20260504192949 78 139 5.0 16.0 0.00 0.00 0.00 28 1011.5
20260504192447 79 187 5.0 16.0 0.00 0.00 0.00 28 1011.6
20260504191947 80 155 3.0 11.0 0.00 0.00 0.00 27 1011.8
20260504191447 80 129 3.0 16.0 0.00 0.00 0.00 29 1011.9
20260504190948 79 234 4.0 16.0 0.00 0.00 0.00 28 1012.0
20260504190449 79 246 4.0 14.0 0.00 0.00 0.00 27 1012.0
20260504185949 79 201 4.0 14.0 0.00 0.00 0.00 28 1012.2
20260504185447 78 242 4.0 12.0 0.00 0.00 0.00 29 1012.2
20260504184948 78 186 4.0 14.0 0.00 0.00 0.00 29 1012.4
20260504184450 78 217 4.0 16.0 0.00 0.00 0.00 29 1012.5
20260504183947 76 181 5.0 24.0 0.00 0.00 0.00 32 1012.5
20260504183448 77 190 4.0 24.0 0.00 0.00 0.00 29 1012.6
20260504182947 78 242 4.0 16.0 0.00 0.00 0.00 29 1012.7
20260504182448 77 222 4.0 16.0 0.00 0.00 0.00 29 1012.8
20260504182253 77 241 4.0 16.0 0.00 0.00 0.00 29 1012.8
20260504181447 77 196 3.0 11.0 0.00 0.00 0.00 28 1012.9
20260504180947 77 257 2.0 8.0 0.00 0.00 0.00 30 1012.9
20260504180447 78 143 2.0 8.0 0.00 0.00 0.00 28 1013.0
20260504175947 78 187 2.0 8.0 0.00 0.00 0.00 30 1013.1
20260504175449 76 210 2.0 14.0 0.00 0.00 0.00 29 1013.2
20260504174946 76 167 4.0 14.0 0.00 0.00 0.00 31 1013.3
20260504174447 75 234 4.0 12.0 0.00 0.00 0.00 31 1013.3
20260504173948 75 269 3.0 12.0 0.00 0.00 0.00 32 1013.3
20260504173543 75 201 3.0 9.0 0.00 0.00 0.00 32 1013.5
20260504173523 76 129 3.0 7.0 0.00 0.00 0.00 30 1013.5
20260504172730 74 210 3.0 11.0 0.00 0.00 0.00 34 1013.6
20260504171939 74 215 4.0 11.0 0.00 0.00 0.00 31 1013.7
20260504171441 74 150 4.0 11.0 0.00 0.00 0.00 31 1013.7
20260504170942 74 223 4.0 11.0 0.00 0.00 0.00 32 1013.8
20260504170440 74 234 3.0 9.0 0.00 0.00 0.00 30 1014.0
20260504160437 71 272 4.0 12.0 0.00 0.00 0.00 32 1014.7
20260504150931 68 125 4.0 12.0 0.00 0.00 0.00 33 1015.2
20260504150429 68 205 4.0 12.0 0.00 0.00 0.00 34 1015.3
20260504140930 62 82 1.0 5.0 0.00 0.00 0.00 45 1015.3
20260504140722 62 188 1.0 5.0 0.00 0.00 0.00 43 1015.4
20260504130430 56 82 1.0 5.0 0.00 0.00 0.00 52 1015.9
20260504130222 56 166 2.0 5.0 0.00 0.00 0.00 52 1016.0